Location: Parc des �les de St-Timoth�e
(45.2924°N, 74.0481°W)
Time: 22:18:24
(UTC-04:00)

ISS - All Passes

Search period start: 23 July 2014 00:00
Search period end: 02 August 2014 00:00
Orbit: 411 x 419 km, 51.6° (Epoch: 23 July)

Date Brightness Start Highest point End Pass type
(mag) Time Alt. Az. Time Alt. Az. Time Alt. Az.
23 Jul - 02:11:05 10° SSW 02:14:09 34° SE 02:17:14 10° ENE visible
23 Jul - 03:47:33 10° W 03:50:49 46° NNW 03:54:05 10° NE visible
23 Jul - 05:25:08 10° WNW 05:28:04 26° N 05:30:59 10° ENE daylight
23 Jul - 07:02:06 10° NW 07:05:20 42° NNE 07:08:34 10° E daylight
23 Jul - 08:38:53 10° WNW 08:42:04 40° SW 08:45:14 10° SSE daylight
24 Jul - 01:22:54 10° S 01:25:30 21° SE 01:28:06 10° E visible
24 Jul - 02:58:36 10° WSW 03:01:57 66° NNW 03:05:18 10° ENE visible
24 Jul - 04:36:07 10° WNW 04:39:05 28° N 04:42:03 10° NE visible
24 Jul - 06:13:18 10° NW 06:16:25 33° NNE 06:19:31 10° E daylight
24 Jul - 07:49:59 10° WNW 07:53:20 66° SSW 07:56:39 10° SE daylight
24 Jul - 09:29:26 10° SW 09:29:28 10° SW 09:29:30 10° SW daylight
25 Jul - 00:35:18 10° SSE 00:36:53 13° SE 00:38:29 10° ESE visible
25 Jul - 02:09:46 10° WSW 02:13:07 82° SSE 02:16:30 10° ENE visible
25 Jul - 03:47:04 10° WNW 03:50:07 31° NNW 03:53:10 10° NE visible
25 Jul - 05:24:27 10° NW 05:27:27 29° N 05:30:27 10° ENE daylight
25 Jul - 07:01:09 10° WNW 07:04:32 79° NNE 07:07:53 10° ESE daylight
25 Jul - 08:38:38 10° W 08:40:53 17° SW 08:43:08 10° S daylight
26 Jul - 01:21:06 10° SW 01:24:21 51° SE 01:27:38 10° ENE visible
26 Jul - 02:58:00 10° W 03:01:10 37° NNW 03:04:21 10° NE visible
26 Jul - 04:35:33 10° WNW 04:38:29 27° N 04:41:25 10° ENE visible
26 Jul - 06:12:21 10° NW 06:15:41 54° NNE 06:18:59 10° ESE daylight
26 Jul - 07:49:20 10° W 07:52:15 27° SW 07:55:08 10° SSE daylight
27 Jul - 00:32:39 10° SSW 00:35:38 31° SE 00:38:39 10° ENE visible
27 Jul - 02:08:59 10° W 02:12:16 49° NNW 02:15:33 10° NE visible
27 Jul - 03:46:34 10° WNW 03:49:29 26° N 03:52:25 10° ENE visible
27 Jul - 05:23:34 10° NW 05:26:46 40° NNE 05:29:59 10° E daylight
27 Jul - 07:00:19 10° WNW 07:03:33 44° SW 07:06:45 10° SE daylight
27 Jul - 23:44:32 10° S 23:46:59 19° SE 23:49:27 10° E night (unlit)
28 Jul - 01:20:03 10° WSW 01:23:24 71° NNW 01:26:46 10° ENE visible
28 Jul - 02:57:32 10° WNW 03:00:30 28° N 03:03:29 10° NE visible
28 Jul - 04:34:45 10° NW 04:37:50 32° NNE 04:40:55 10° E visible
28 Jul - 06:11:25 10° WNW 06:14:47 73° SSW 06:18:08 10° SE daylight
28 Jul - 07:49:53 10° WSW 07:50:58 11° SW 07:52:02 10° SSW daylight
28 Jul - 22:57:11 10° SSE 22:58:23 12° SE 22:59:35 10° ESE night (unlit)
29 Jul - 00:31:14 10° SW 00:34:34 75° SSE 00:37:56 10° ENE visible
29 Jul - 02:08:28 10° WNW 02:11:32 32° NNW 02:14:36 10° NE visible
29 Jul - 03:45:53 10° NW 03:48:52 28° N 03:51:51 10° ENE visible
29 Jul - 05:22:35 10° WNW 05:25:58 73° NNE 05:29:19 10° ESE daylight
29 Jul - 06:59:56 10° W 07:02:22 19° SW 07:04:46 10° S daylight
29 Jul - 23:42:35 10° SW 23:45:48 46° SE 23:49:02 10° ENE visible
30 Jul - 01:19:24 10° W 01:22:35 39° NNW 01:25:47 10° NE visible
30 Jul - 02:56:57 10° WNW 02:59:52 27° N 03:02:48 10° ENE visible
30 Jul - 04:33:47 10° NW 04:37:05 50° NNE 04:40:23 10° E visible
30 Jul - 06:10:42 10° WNW 06:13:42 30° SW 06:16:41 10° SSE daylight
30 Jul - 22:54:11 10° SSW 22:57:05 28° SE 23:00:01 10° ENE night (unlit)
31 Jul - 00:30:23 10° WSW 00:33:40 53° NNW 00:36:59 10° NE visible
31 Jul - 02:07:57 10° WNW 02:10:52 27° N 02:13:48 10° ENE visible
31 Jul - 03:44:59 10° NW 03:48:10 38° NNE 03:51:21 10° E visible
31 Jul - 05:21:42 10° WNW 05:24:59 49° SW 05:28:14 10° SE daylight
31 Jul - 22:06:09 10° S 22:08:26 17° SE 22:10:44 10° E night (unlit)
31 Jul - 23:41:27 10° WSW 23:44:48 77° NNW 23:48:10 10° ENE visible
01 Aug - 01:18:54 10° WNW 01:21:53 29° N 01:24:52 10° NE visible
01 Aug - 02:56:09 10° NW 02:59:13 31° NNE 03:02:17 10° ENE visible
01 Aug - 04:32:49 10° WNW 04:36:12 80° SSW 04:39:33 10° SE visible
01 Aug - 06:10:56 10° WSW 06:12:25 12° SW 06:13:55 10° SSW daylight
01 Aug - 21:19:17 10° SE 21:19:50 10° SE 21:20:23 10° ESE visible
01 Aug - 22:52:40 10° SW 22:55:59 69° SSE 22:59:20 10° ENE night (unlit)
